Tracking 25707 objects as of 30-Jun-2022
HD Live streaming from Space Station
objects crossing your sky now

ECHOSTAR 6

Track ECHOSTAR 6 now!
ECHOSTAR 6 is classified as:


NORAD ID: 26402
Int'l Code: 2000-038A
Perigee: 36,187.8 km
Apogee: 36,238.6 km
Inclination: 7.8 °
Period: 1,457.6 minutes
Semi major axis: 42584 km
RCS: 25.1188 m2 (large)
Launch date: July 14, 2000
Source: United States (US)
Launch site: AIR FORCE EASTERN TEST RANGE (AFETR)

CONUS, Hawaii, Alaska and Puerto Rico; 32 Ku-band transponders
aabbcc
Your satellite tracking list
Your tracking list is empty




NASA's NSSDC Master Catalog

Two Line Element Set (TLE):
1 26402U 00038A   22180.50292500 -.00000256  00000-0  00000-0 0  9995
2 26402   7.7861  57.7463 0005955   9.3519 190.0687  0.98793935 80190
Source of the keplerian elements: AFSPC